sat.trackr.live / text

‹ back to catalog

STARLINK-5682

NORAD 55457 · 2023-015J

PAYLOAD ACTIVE UNKNOWN

§ Identity

Operator
Country
US
Launch date
2023-02-02
Launch site
AFETR
Launch vehicle
Mass (kg)
RCS (m²)

Purposes: comms

External: N2YO · Heavens-Above · Gunter

§ Orbital elements

Epoch: 2026-09-20T11:26:14.285472Z

Period
94.27 min
Inclination
43.0008°
Eccentricity
0.0001002
Mean motion
15.27574395 rev/d
Perigee alt
482.4 km
Apogee alt
483.8 km
Semi-major
6,861.2 km
B*
2.0479e-5
RAAN
308.5513°
Arg perigee
287.4675°
Mean anomaly
72.6067°
Rev number
20,051

§ Raw data

STARLINK-56821 55457U 23015J   26263.47655423  .00000302  00000+0  20479-4 0  99922 55457  43.0008 308.5513 0001002 287.4675  72.6067 15.27574395200514

JSON: /api/v1/satellites/55457 · /tle

For live sub-satellite position, see the globe view (requires WebGL).

§ Visibility from observer

Set your observer location to see the next 7 days of passes ≥ 10°. The values pass through the URL so the page stays shareable.

No JS? Fill the form by hand. The geolocation button needs JavaScript.